[Iaude] MPEC W90: 2021 OX [a=1.34,e=0.31,i=27.1,H=21.28]
    mpec at marsden.cfa.harvard.edu 
    mpec at marsden.cfa.harvard.edu
       
    Wed Nov 22 09:21:32 EST 2023
    
    
  
M.P.E.C. 2023-W90                             Issued 2023 November 22, 14:20 UT
     The Minor Planet Electronic Circulars contain information on unusual
         minor planets, routine data on comets and natural satellites,
         and occasional editorial announcements.  They are published
    on behalf of Division F of the International Astronomical Union by the
          Minor Planet Center, Smithsonian Astrophysical Observatory,
                          Cambridge, MA 02138, U.S.A.
			  
             Prepared using the Tamkin Foundation Computer Network
                              MPC at CFA.HARVARD.EDU
            URL https://www.minorplanetcenter.net/    ISSN 1523-6714
                                    2021 OX                                     
                           Revision to MPEC 2021-O63                            
Additional Observations:
     K21O00X  C2008 02 09.23484 07 33 58.82 +28 39 45.3          19.4 rwEW090699
     K21O00X  C2008 02 09.25988 07 33 55.75 +28 36 21.5          19.3 rwEW090699
     K21O00X  C2008 02 09.28490 07 33 52.71 +28 32 57.7          19.3 rwEW090699
     K21O00X  C2008 02 09.31001 07 33 49.52 +28 29 32.2          19.2 rwEW090699
     K21O00X KC2019 01 10.59404112 53 55.608-12 38 10.69         22.70GVEW090F51
Observer details:
699 Lowell Observatory-LONEOS.  Observer J. J. Sanborn.  0.59-m LONEOS Schmidt
    + CCD.
F51 Pan-STARRS 1, Haleakala.  Observers J. Herman, T. Lowe, P. Minguez, A.
    Schultz, I. Smith.  Measurers K. Chambers, T. de Boer, J. Fairlamb, H.
    Gao, M. Huber, C.-C. Lin, E. Magnier, Y. Ramanjooloo, R. Wainscoat, R.
    Weryk.  1.8-m Ritchey-Chretien + CCD.
First and last observations above in comparison with prediction:
Residuals in seconds of arc, reference and Delta-T
080209 699 60.0+ 41.9+    190110 F51  0.4+  2.1+    E2023-R01   -0.00 days
Orbital elements:
2021 OX                                                  Earth MOID = 0.1604 AU
Epoch 2023 Sept. 13.0 TT = JDT 2460200.5                Veres                   
M  59.67008              (2000.0)            P               Q                  
n   0.63412070     Peri.   95.20999     +0.53566347     -0.78555892             
a   1.3418010      Node   317.19511     +0.47265587     +0.58292087             
e   0.3083853      Incl.   27.12202     +0.69975787     +0.20760645             
P   1.55           H   21.28          G   0.15           U   0                  
Residuals in seconds of arc
080209 699  1.0-  0.6-    220124 C95  0.3-  0.4+    220202 K51  0.1+  0.2-
080209 699  0.2-  0.2-    220124 C95  0.0   0.3+    220203 T05  0.2+  0.4+
080209 699  0.8+  0.1+    220124 C95  0.1+  0.3+    220203 T05  0.4+  0.1+
080209 699  0.5-  0.3-    220124 C95  0.1+  0.5+    220203 T05  0.1+  0.4+
190110 F51  0.1-  0.1-    220124 A17  0.2+  0.0     220203 T05  0.3-  0.0
210717 F51  0.2+  0.1-    220124 A17  0.0   0.1+    220204 T05  0.2+  0.2-
210717 F51  0.0   0.0     220124 A17  0.2+  0.0     220204 T05  0.6-  0.1+
210717 F51  0.1-  0.0     220125 T05  0.1+  0.4-    220204 T05  0.3+  0.2-
210717 F51  0.1-  0.0     220125 T05  0.1-  0.3-    220204 T05  0.5-  0.2+
210718 F51  0.2-  0.1-    220125 T05  0.3+  0.1-    220205 703  0.1+  0.5+
210718 F51  0.0   0.1-    220125 T05  0.2+  0.4-    220205 703  0.1+  0.3+
210718 F51  0.1-  0.0     220126 703  0.3+  0.6+    220205 703  0.3-  0.4+
210719 F51  0.0   0.0     220126 703  0.3-  0.3-    220205 703  0.4-  0.0
210719 F51  0.4+  0.4-    220126 703  0.4-  0.2+    220205 T08  0.2+  0.8+
210719 F51  0.0   0.0     220126 703  0.3+  0.0     220205 T08  0.2+  0.3+
210719 F51  0.2+  0.2+    220127 T08  0.2+  0.5+    220205 T08  0.2-  0.2-
210727 Y00  0.4-  1.5-    220127 T08  0.1+  0.5-    220205 T08  0.5+  0.0
210727 Y00  0.0   0.5-    220127 T08  0.2+  0.0     220206 703  0.4+  0.3-
210727 Y00  0.2-  0.6-    220127 T08  0.2-  0.3-    220206 703  0.4+  0.3-
210727 L81  0.5-  0.3-    220127 K19  0.3+  0.2+    220206 703  0.4-  0.1+
210727 L81  0.5-  0.1-    220127 K19  0.0   0.3+    220206 703  0.8+  0.0
210730 W94  0.3+  0.3-    220127 K19  0.1+  0.2+    220208 734  0.2+  0.3+
210730 W94  0.3+  0.2-    220128 T08  0.2-  0.9-    220208 734  0.0   0.2+
210730 W94  0.2+  1.0+    220128 T08  0.5+  0.2+    220208 734  0.0   0.3+
210803 807  0.1-  0.1+    220128 T08  0.1+  0.1+    220208 734  0.1-  0.3+
210803 807  0.1+  0.1+    220128 T08  0.2+  0.3-    220208 703  0.9+  0.1+
210803 807  0.2-  0.2-    220129 K88  0.4+  0.1+    220208 703  0.7-  0.2-
210805 F51  0.1-  0.2+    220129 K88  0.1-  0.2-    220208 703  0.0   0.6-
210805 F51  0.2-  0.0     220129 K88  0.4-  0.9-    220208 703  0.3-  0.1+
210805 F51  0.2-  0.1+    220129 K88  0.3+  0.2+    220208 F52  0.1-  0.1-
210811 474  0.1+  0.2-    220129 K88  0.2+  0.3+    220208 F52  0.0   0.1-
210811 474  0.2-  0.0     220129 K88  0.1-  0.6-    220208 T08  0.6+  1.0-
210812 807  0.1+  0.0     220129 703  0.4+  0.2+    220208 T08  0.5-  0.2+
210812 807  0.1+  0.5-    220129 T05  0.1+  0.4+    220208 T08  0.0   0.2-
210812 807 (0.7-  0.4-)   220129 T05  0.2+  0.2+    220208 T08  0.4+  0.1-
210812 F51 (0.2-  0.5+)   220129 703  0.1+  0.4+    220208 T05  0.0   0.3-
210812 F51  0.0   0.2+    220129 703  0.1+  0.2+    220208 T05  0.2+  0.2+
210812 F51  0.0   0.1+    220129 T05  0.5+  0.2+    220208 T05  0.0   0.0
210812 F51  0.1+  0.1+    220129 703  0.3-  0.0     220208 T05  0.4-  0.6+
210818 807  0.2+  0.4-    220129 T05  0.2-  0.1+    220208 C97  0.4-  0.1+
210818 807  0.1+  0.1+    220130 U68  0.1-  0.1+    220208 C97  0.4-  0.4+
210818 807  0.2+  0.4+    220130 T05  0.2+  0.4+    220208 C97  0.1+  0.3+
210905 T12  0.0   0.0     220130 U68  0.4+  0.4+    220209 T08  0.3-  0.4+
211016 695  0.1-  0.2-    220130 T05  0.1-  0.1-    220209 T08  0.1+  0.5+
211016 695  0.2-  0.2+    220130 T05  0.1+  0.3+    220209 T08  0.6+  0.2-
211016 695  0.1+  0.2+    220130 U68  0.4+  0.1+    220209 T08  0.3-  1.3+
220102 C51 (0.6+  1.7+)   220130 U68  0.0   0.2+    220209 K87  0.4+  0.4-
220103 033  0.0   0.0     220130 T05  0.3+  0.8+    220209 K87  0.3-  0.0
220103 033  0.0   0.0     220130 T08  0.1-  0.1+    220209 A17  0.1-  0.0
220103 033  0.3-  0.2+    220130 T08  0.4-  0.0     220209 K87  0.2-  0.5-
220103 C51 (1.8+  0.0 )   220130 T08  0.2+  0.2+    220209 A17  0.1+  0.0
220103 V06  0.1-  0.3-    220130 T08  0.6+  0.0     220209 A17  0.0   0.3-
220103 V06  0.4-  0.2-    220131 130  0.0   0.1+    220209 B67  0.4+  0.0
220103 V06  0.3+  0.1-    220131 130  0.0   0.1+    220209 B67  0.4+  0.8-
220114 F52  0.0   0.1+    220131 130  0.1-  0.3+    220209 B67  0.2-  0.1-
220114 F52  0.1-  0.2-    220131 130  0.1+  0.3+    220209 B67  0.3-  0.0
220114 F52  0.0   0.1+    220131 G96  0.2-  0.1-    220209 B67  0.1-  0.0
220115 F52  0.1+  0.0     220131 G96  0.2-  0.1-    220210 T08  0.1+  0.0
220115 F52  0.2+  0.0     220131 G96  0.1-  0.0     220210 T08  0.8-  0.7-
220115 F52  0.0   0.0     220131 G96  0.0   0.0     220210 T08  0.6+  0.6-
220116 204  0.3+  0.0     220131 T08  0.1-  0.1+    220210 T08  0.7+  1.1+
220116 204  0.2+  0.1-    220131 T08  0.1+  0.2+    220211 T05  0.2-  0.3+
220116 204  0.1+  0.1+    220131 T08  0.8+  0.0     220211 T05  0.2-  0.3-
220118 H36  0.0   0.1+    220131 T08  0.4+  0.4+    220211 T05  0.7-  0.2+
220118 H36  1.1-  0.6-    220201 703  0.4+  0.4-    220211 T05  0.2-  0.5-
220118 H36  0.4-  0.9-    220201 703  0.2+  0.1+    220221 691  0.1-  0.1-
220120 F52  0.3-  0.1-    220201 703  0.2-  0.4-    220221 691  0.6+  0.7+
220120 F52  0.2+  0.1+    220201 703  0.3+  0.5-    220221 691  0.3+  0.7+
220122 703  0.7+  0.1-    220202 G01  0.3+  1.0+    220307 G96 (0.7-  0.7+)
220122 703  1.2+  0.0     220202 G01  0.7+  1.5+    220307 G96 (1.0-  0.3-)
220122 703  0.1-  0.2+    220202 K51  0.4+  0.1+
220122 703  0.2+  0.3-    220202 K51  0.2+  0.2-
Ephemeris:
2021 OX                  a,e,i = 1.34, 0.31, 27                  q = 0.9280
Date    TT    R. A. (2000) Decl.     Delta      r    Elong.  Phase     V
2023 10 23    12 04 45.6 -10 44 51   2.2650  1.4299    25.3    17.3    24.7
...
2023 11 07    12 38 25.2 -16 49 34   2.2556  1.4903    30.6    19.8    24.9
...
2023 11 15    12 56 22.2 -19 57 24   2.2433  1.5203    33.5    21.1    25.0
...
2023 11 21    13 09 53.5 -22 15 00   2.2307  1.5417    35.8    22.0    25.0
2023 11 22    13 12 09.1 -22 37 39   2.2283  1.5452    36.2    22.2    25.0
2023 11 23    13 14 24.9 -23 00 13   2.2259  1.5486    36.6    22.3    25.0
...
2023 11 29    13 28 03.4 -25 13 50   2.2096  1.5688    38.9    23.2    25.1
...
2023 12 07    13 46 27.0 -28 07 14   2.1836  1.5941    42.0    24.4    25.1
...
2023 12 22    14 21 43.8 -33 16 40   2.1219  1.6368    48.0    26.5    25.2
A. U. Tomatic                (C) Copyright 2023 MPC           M.P.E.C. 2023-W90
    
    
More information about the Iaude
mailing list